TimePDT,TemperatureF,Dew PointF,Humidity,Sea Level PressureIn,VisibilityMPH,Wind Direction,Wind SpeedMPH,Gust SpeedMPH,PrecipitationIn,Events,Conditions,WindDirDegrees,DateUTC
12:15 AM,39.2,37.4,93,30.27,10.0,WNW,4.6,-,N/A,,Clear,290,2013-03-13 07:15:00
12:35 AM,41.0,37.4,87,30.28,10.0,West,3.5,-,N/A,,Clear,270,2013-03-13 07:35:00
12:55 AM,39.2,35.6,87,30.28,10.0,Calm,Calm,-,N/A,,Clear,0,2013-03-13 07:55:00
1:15 AM,37.4,35.6,93,30.28,10.0,West,3.5,-,N/A,,Clear,280,2013-03-13 08:15:00
1:35 AM,39.2,35.6,87,30.28,10.0,WNW,3.5,-,N/A,,Clear,290,2013-03-13 08:35:00
1:55 AM,37.4,35.6,93,30.28,10.0,West,3.5,-,N/A,,Clear,280,2013-03-13 08:55:00
2:15 AM,37.4,35.6,93,30.29,10.0,West,3.5,-,N/A,,Clear,260,2013-03-13 09:15:00
2:35 AM,35.6,33.8,93,30.29,9.0,Calm,Calm,-,N/A,,Clear,0,2013-03-13 09:35:00
2:55 AM,35.6,33.8,93,30.29,10.0,West,3.5,-,N/A,,Clear,270,2013-03-13 09:55:00
3:15 AM,35.6,33.8,93,30.29,10.0,Calm,Calm,-,N/A,,Clear,0,2013-03-13 10:15:00
3:35 AM,35.6,33.8,93,30.29,10.0,West,3.5,-,N/A,,Clear,270,2013-03-13 10:35:00
3:55 AM,35.6,33.8,93,30.29,10.0,Calm,Calm,-,N/A,,Clear,0,2013-03-13 10:55:00
4:15 AM,35.6,32.0,87,30.29,9.0,West,3.5,-,N/A,,Clear,280,2013-03-13 11:15:00
4:35 AM,35.6,32.0,87,30.29,9.0,Calm,Calm,-,N/A,,Clear,0,2013-03-13 11:35:00
4:55 AM,33.8,32.0,93,30.28,10.0,Calm,Calm,-,N/A,,Clear,0,2013-03-13 11:55:00
5:15 AM,33.8,32.0,93,30.28,10.0,West,3.5,-,N/A,,Clear,270,2013-03-13 12:15:00
5:35 AM,33.8,32.0,93,30.29,10.0,WNW,4.6,-,N/A,,Clear,290,2013-03-13 12:35:00
5:55 AM,33.8,32.0,93,30.29,10.0,Calm,Calm,-,N/A,,Clear,0,2013-03-13 12:55:00
6:15 AM,33.8,32.0,93,30.30,10.0,Calm,Calm,-,N/A,,Clear,0,2013-03-13 13:15:00
6:35 AM,32.0,32.0,100,30.29,9.0,West,3.5,-,N/A,,Clear,280,2013-03-13 13:35:00
6:55 AM,32.0,32.0,100,30.30,10.0,Calm,Calm,-,N/A,,Clear,0,2013-03-13 13:55:00
7:15 AM,32.0,32.0,100,30.30,10.0,WNW,3.5,-,N/A,,Clear,290,2013-03-13 14:15:00
7:35 AM,32.0,32.0,100,30.30,10.0,West,3.5,-,N/A,,Clear,280,2013-03-13 14:35:00
7:55 AM,32.0,32.0,100,30.30,10.0,West,4.6,-,N/A,,Clear,280,2013-03-13 14:55:00
8:15 AM,35.6,32.0,87,30.30,10.0,Calm,Calm,-,N/A,,Clear,0,2013-03-13 15:15:00
8:35 AM,39.2,35.6,87,30.30,10.0,Calm,Calm,-,N/A,,Clear,0,2013-03-13 15:35:00
8:55 AM,39.2,35.6,87,30.31,10.0,Calm,Calm,-,N/A,,Clear,0,2013-03-13 15:55:00
9:15 AM,39.2,35.6,87,30.31,10.0,Calm,Calm,-,N/A,,Clear,0,2013-03-13 16:15:00
9:35 AM,39.2,37.4,93,30.31,10.0,Calm,Calm,-,N/A,,Clear,0,2013-03-13 16:35:00
9:55 AM,42.8,37.4,81,30.31,10.0,ENE,3.5,-,N/A,,Clear,60,2013-03-13 16:55:00
10:15 AM,44.6,37.4,76,30.31,10.0,Calm,Calm,-,N/A,,Clear,0,2013-03-13 17:15:00
10:35 AM,44.6,37.4,76,30.30,10.0,SE,3.5,-,N/A,,Clear,140,2013-03-13 17:35:00
10:55 AM,46.4,35.6,66,30.30,10.0,Calm,Calm,-,N/A,,Clear,0,2013-03-13 17:55:00
11:15 AM,48.2,35.6,62,30.30,10.0,Calm,Calm,-,N/A,,Clear,0,2013-03-13 18:15:00
11:35 AM,50.0,37.4,62,30.29,10.0,Calm,Calm,-,N/A,,Clear,0,2013-03-13 18:35:00
11:55 AM,53.6,37.4,54,30.29,10.0,Calm,Calm,-,N/A,,Clear,0,2013-03-13 18:55:00
12:15 PM,53.6,37.4,54,30.28,10.0,Calm,Calm,-,N/A,,Clear,0,2013-03-13 19:15:00
12:35 PM,53.6,39.2,58,30.28,10.0,SE,3.5,-,N/A,,Clear,140,2013-03-13 19:35:00
12:55 PM,55.4,35.6,47,30.28,10.0,Calm,Calm,-,N/A,,Clear,0,2013-03-13 19:55:00
1:15 PM,57.2,37.4,48,30.27,10.0,Calm,Calm,-,N/A,,Clear,0,2013-03-13 20:15:00
1:35 PM,59.0,37.4,45,30.26,10.0,Calm,Calm,-,N/A,,Clear,0,2013-03-13 20:35:00
1:50 PM,62.6,37.4,39,30.25,10.0,Calm,Calm,-,N/A,,Clear,0,2013-03-13 20:50:00
2:15 PM,64.4,37.4,37,30.24,10.0,Calm,Calm,-,N/A,,Clear,0,2013-03-13 21:15:00
2:35 PM,66.2,39.2,37,30.22,10.0,SE,3.5,-,N/A,,Clear,130,2013-03-13 21:35:00
2:55 PM,66.2,39.2,37,30.21,10.0,ENE,3.5,-,N/A,,Clear,60,2013-03-13 21:55:00
3:15 PM,66.2,42.8,43,30.21,10.0,Calm,Calm,-,N/A,,Clear,0,2013-03-13 22:15:00
3:35 PM,68.0,41.0,37,30.21,10.0,ENE,3.5,-,N/A,,Clear,70,2013-03-13 22:35:00
3:55 PM,68.0,41.0,37,30.20,10.0,Calm,Calm,-,N/A,,Clear,0,2013-03-13 22:55:00
4:15 PM,68.0,39.2,35,30.20,10.0,Calm,Calm,-,N/A,,Clear,0,2013-03-13 23:15:00
4:35 PM,68.0,41.0,37,30.20,10.0,Calm,Calm,-,N/A,,Clear,0,2013-03-13 23:35:00
4:55 PM,68.0,37.4,33,30.19,10.0,Calm,Calm,-,N/A,,Clear,0,2013-03-13 23:55:00
5:15 PM,68.0,41.0,37,30.18,10.0,Calm,Calm,-,N/A,,Clear,0,2013-03-14 00:15:00
5:35 PM,68.0,37.4,33,30.18,10.0,Calm,Calm,-,N/A,,Clear,0,2013-03-14 00:35:00
5:55 PM,68.0,37.4,33,30.18,10.0,Calm,Calm,-,N/A,,Clear,0,2013-03-14 00:55:00
6:15 PM,64.4,44.6,49,30.18,10.0,Calm,Calm,-,N/A,,Clear,0,2013-03-14 01:15:00
6:35 PM,62.6,46.4,55,30.18,10.0,Calm,Calm,-,N/A,,Clear,0,2013-03-14 01:35:00
6:55 PM,59.0,42.8,55,30.18,10.0,West,6.9,-,N/A,,Clear,260,2013-03-14 01:55:00
7:15 PM,57.2,41.0,55,30.19,10.0,West,8.1,-,N/A,,Clear,270,2013-03-14 02:15:00
7:35 PM,55.4,41.0,58,30.19,10.0,West,5.8,-,N/A,,Clear,270,2013-03-14 02:35:00
7:55 PM,55.4,41.0,58,30.19,10.0,West,3.5,-,N/A,,Clear,270,2013-03-14 02:55:00
8:15 PM,53.6,41.0,62,30.20,10.0,WNW,4.6,-,N/A,,Clear,300,2013-03-14 03:15:00
8:35 PM,50.0,41.0,71,30.21,10.0,Calm,Calm,-,N/A,,Clear,0,2013-03-14 03:35:00
8:55 PM,50.0,41.0,71,30.21,10.0,Calm,Calm,-,N/A,,Clear,0,2013-03-14 03:55:00
9:15 PM,48.2,41.0,76,30.21,10.0,West,3.5,-,N/A,,Clear,280,2013-03-14 04:15:00
9:35 PM,46.4,41.0,81,30.23,10.0,West,4.6,-,N/A,,Clear,280,2013-03-14 04:35:00
9:55 PM,46.4,39.2,76,30.23,10.0,Calm,Calm,-,N/A,,Clear,0,2013-03-14 04:55:00
10:15 PM,46.4,41.0,81,30.24,10.0,West,3.5,-,N/A,,Clear,260,2013-03-14 05:15:00
10:35 PM,46.4,41.0,81,30.24,10.0,Calm,Calm,-,N/A,,Clear,0,2013-03-14 05:35:00
10:55 PM,46.4,41.0,81,30.25,10.0,Calm,Calm,-,N/A,,Clear,0,2013-03-14 05:55:00
11:15 PM,44.6,41.0,87,30.25,7.0,Calm,Calm,-,N/A,,Clear,0,2013-03-14 06:15:00
11:35 PM,44.6,41.0,87,30.24,7.0,Calm,Calm,-,N/A,,Clear,0,2013-03-14 06:35:00
11:55 PM,44.6,41.0,87,30.24,8.0,Calm,Calm,-,N/A,,Clear,0,2013-03-14 06:55:00